Location: Bee Sting Hill Observatory
(34.8650°N, 84.3356°W)
Time: 01:55:18
(UTC-04:00)

OTV 5 (USA 277) - Visible Passes

Search period start: 22 May 2018 00:00
Search period end: 01 June 2018 00:00
Orbit: 308 x 326 km, 54.5° (Epoch: 06 May)

Date Brightness Start Highest point End Pass type
(mag) Time Alt. Az. Time Alt. Az. Time Alt. Az.
26 May ? 05:43:57 10° S 05:46:19 27° SE 05:48:43 10° ENE visible
28 May ? 04:40:45 15° SE 04:40:59 15° SE 04:42:40 10° E visible
29 May ? 04:54:46 44° SSE 04:55:13 51° SE 04:57:54 10° NE visible
30 May ? 05:08:42 29° W 05:09:36 40° NW 05:12:14 10° NNE visible
31 May ? 03:51:42 13° ENE 03:51:42 13° ENE 03:52:12 10° ENE visible
31 May ? 05:22:34 11° WNW 05:24:11 15° NW 05:25:55 10° N visible
